sat.trackr.live / text

‹ back to catalog

STARLINK-2547

NORAD 48286 · 2021-036L

PAYLOAD ACTIVE UNKNOWN

§ Identity

Operator
Country
US
Launch date
2021-04-29
Launch site
AFETR
Launch vehicle
Mass (kg)
RCS (m²)

Purposes: comms

External: N2YO · Heavens-Above · Gunter

§ Orbital elements

Epoch: 2026-09-19T23:19:37.726752Z

Period
94.01 min
Inclination
53.1591°
Eccentricity
0.0001401
Mean motion
15.31695602 rev/d
Perigee alt
469.8 km
Apogee alt
471.7 km
Semi-major
6,848.9 km
B*
3.4471e-5
RAAN
251.2946°
Arg perigee
68.4211°
Mean anomaly
291.6940°
Rev number
29,817

§ Raw data

STARLINK-25471 48286U 21036L   26262.97196443  .00000704  00000+0  34471-4 0  99942 48286  53.1591 251.2946 0001401  68.4211 291.6940 15.31695602298177

JSON: /api/v1/satellites/48286 · /tle

For live sub-satellite position, see the globe view (requires WebGL).

§ Visibility from observer

Set your observer location to see the next 7 days of passes ≥ 10°. The values pass through the URL so the page stays shareable.

No JS? Fill the form by hand. The geolocation button needs JavaScript.